Location: Olivenhain
(33.0462°N, 117.2348°W)
Time: 20:31:55
(UTC+00:00)

OAO 3 Rocket - Pass Details

Date: 27 June 2022
Orbit: 628 x 681 km, 35.0° (Epoch: 09 August)

Event Time Altitude Azimuth Distance (km) Brightness Sun altitude
Exits shadow 12:09:02 - 265° (W) 2,545 5.7 -6.8°
Reaches altitude 10° 12:10:11 10° 266° (W) 2,105 5.3 -6.6°
Maximum altitude 12:15:07 76° 352° (N) 693 3.4 -5.8°
Drops below altitude 10° 12:20:00 10° 78° (ENE) 2,082 7.2 -4.9°
Sets 12:22:22 0° 80° (E) 2,986 8.1 -4.5°
